Location: *
(57.8420°S, 159.8600°W)
Time: 04:02:35
(UTC+00:00)

SJ 16-02 - Pass Details

Date: 18 May 2021
Orbit: 606 x 616 km, 75.0° (Epoch: 18 June)

Event Time Altitude Azimuth Distance (km) Brightness Sun altitude
Rises 03:02:09 0° 208° (SSW) 2,917 4.8 -4.8°
Reaches altitude 10° 03:04:39 10° 196° (SSW) 2,008 3.9 -5.1°
Maximum altitude 03:08:38 31° 134° (SE) 1,113 2.2 -5.6°
Drops below altitude 10° 03:12:37 10° 71° (ENE) 1,997 3.6 -6.1°
Sets 03:15:05 0° 60° (ENE) 2,899 4.5 -6.4°
